Back to catalog

IRNSS 1G

AliveNavigationGEO
NORAD 41469·PAYLOAD·🇮🇳 India

Launched Apr 28, 2016 from Satish Dhawan Space Centre

Loading…

TLE

FreshSource: Space-Track

Epoch: Sep 14, 2026, 12:42 UTC

1 41469U 16027A   26257.52946205 -.00000343  00000-0  00000-0 0  9996
2 41469   5.4115  95.3950 0003861  48.0652 170.0027  1.00264205 38071

Track IRNSS 1G in real time with AllMySat

Download on the App Store